Location: Brahman Valley
(40.6513°N, 111.8855°W)
Time: 08:16:44
(UTC+00:00)

Tiros 1 despin weight - Pass Details

Date: 13 May 2021
Orbit: 594 x 641 km, 48.2° (Epoch: 22 June)

Event Time Altitude Azimuth Distance (km) Brightness Sun altitude
Rises 11:20:00 0° 281° (WNW) 2,930 - -9.4°
Reaches altitude 10° 11:24:17 10° 244° (WSW) 2,006 - -8.7°
Maximum altitude 11:25:19 11° 231° (SW) 1,957 - -8.6°
Exits shadow 11:25:30 11° 229° (SW) 1,957 ? -8.5°
Drops below altitude 10° 11:26:21 10° 218° (SW) 1,997 ? -8.4°
Sets 11:30:35 0° 180° (S) 2,883 ? -7.7°
